Terug naar catalogus

SL-14 DEB

ActiefPO
NORAD 47091·DEBRIS·🇷🇺 Russia

Gelanceerd Aug 15, 1991 vanaf Plesetsk Cosmodrome

Loading…

Volgende Passages (komende 24 uur)

TLE

VersSource: Space-Track

Epoch: Sep 14, 2026, 11:22 UTC

1 47091U 91056DR  26257.47412382  .00000391  00000-0  93279-3 0  9991
2 47091  82.5946  80.3134 0008902 115.6955 244.5089 13.20564276282423

Volg SL-14 DEB in realtime met AllMySat

Download on the App Store